Location: Unspecified
(55.7024°N, 37.6611°E)
Time: 18:50:57
(UTC+03:00)

A-11 Canister half - All Passes

Search period start: 23 June 2025 00:00
Search period end: 03 July 2025 00:00
Orbit: 1515 x 1684 km, 47.2° (Epoch: 22 June)

Date Brightness Start Highest point End Pass type
(mag) Time Alt. Az. Time Alt. Az. Time Alt. Az.
23 Jun - 13:47:51 10° S 13:55:27 25° SE 14:02:59 10° E daylight
23 Jun - 15:49:16 10° SW 15:58:41 46° SSE 16:07:54 10° E daylight
23 Jun - 17:52:59 10° WSW 18:02:36 53° S 18:11:54 10° ESE daylight
23 Jun - 19:57:30 10° W 20:06:15 37° SSW 20:14:44 10° SSE daylight
23 Jun - 22:03:48 10° W 22:08:48 15° SW 22:13:44 10° SSW daylight
24 Jun - 13:25:07 10° S 13:32:32 24° SE 13:39:53 10° E daylight
24 Jun - 15:26:19 10° SW 15:35:42 45° SSE 15:44:53 10° E daylight
24 Jun - 17:29:57 10° WSW 17:39:36 53° S 17:48:57 10° ESE daylight
24 Jun - 19:34:25 10° W 19:43:18 38° SSW 19:51:53 10° SE daylight
24 Jun - 21:40:30 10° W 21:45:56 17° SW 21:51:18 10° SSW daylight
25 Jun - 13:02:24 10° S 13:09:37 23° SE 13:16:45 10° E daylight
25 Jun - 15:03:21 10° SW 15:12:43 44° SSE 15:21:53 10° E daylight
25 Jun - 17:06:55 10° WSW 17:16:36 53° S 17:26:00 10° ESE daylight
25 Jun - 19:11:22 10° W 19:20:20 40° SSW 19:29:02 10° SE daylight
25 Jun - 21:17:13 10° W 21:23:03 18° SW 21:28:47 10° SSW daylight
26 Jun - 12:39:43 10° S 12:46:41 22° SE 12:53:37 10° E daylight
26 Jun - 14:40:25 10° SW 14:49:44 43° SSE 14:58:52 10° E daylight
26 Jun - 16:43:54 10° WSW 16:53:36 53° S 17:03:02 10° ESE daylight
26 Jun - 18:48:18 10° W 18:57:22 41° SSW 19:06:10 10° SE daylight
26 Jun - 20:53:58 10° W 21:00:10 19° SW 21:06:14 10° S daylight
27 Jun - 12:17:04 10° S 12:23:47 20° SE 12:30:28 10° E daylight
27 Jun - 14:17:29 10° SW 14:26:44 42° SSE 14:35:51 10° E daylight
27 Jun - 16:20:54 10° WSW 16:30:36 53° S 16:40:03 10° ESE daylight
27 Jun - 18:25:15 10° W 18:34:25 42° SSW 18:43:17 10° SE daylight
27 Jun - 20:30:46 10° W 20:37:17 20° SW 20:43:40 10° S daylight
28 Jun - 11:54:26 10° S 12:00:52 19° SE 12:07:17 10° E daylight
28 Jun - 13:54:34 10° SW 14:03:46 41° SSE 14:12:50 10° E daylight
28 Jun - 15:57:52 10° WSW 16:07:35 53° S 16:17:04 10° ESE daylight
28 Jun - 18:02:12 10° W 18:11:26 43° SSW 18:20:24 10° SE daylight
28 Jun - 20:07:35 10° W 20:14:23 21° SW 20:21:02 10° S daylight
29 Jun - 11:31:50 10° SSE 11:37:58 18° SE 11:44:04 10° E daylight
29 Jun - 13:31:40 10° SW 13:40:47 40° SSE 13:49:49 10° E daylight
29 Jun - 15:34:52 10° WSW 15:44:35 53° S 15:54:05 10° ESE daylight
29 Jun - 17:39:09 10° W 17:48:28 44° SSW 17:57:31 10° SE daylight
29 Jun - 19:44:24 10° W 19:51:28 23° SW 19:58:24 10° S daylight
30 Jun - 11:09:17 10° SSE 11:15:04 17° SE 11:20:50 10° E daylight
30 Jun - 13:08:46 10° SW 13:17:49 39° SSE 13:26:47 10° E daylight
30 Jun - 15:11:52 10° WSW 15:21:35 53° S 15:31:07 10° ESE daylight
30 Jun - 17:16:07 10° W 17:25:30 45° SSW 17:34:36 10° SE daylight
30 Jun - 19:21:15 10° W 19:28:34 24° SW 19:35:43 10° S daylight
01 Jul - 10:46:47 10° SSE 10:52:10 16° SE 10:57:33 10° E daylight
01 Jul - 12:45:53 10° SSW 12:54:50 37° SSE 13:03:45 10° E daylight
01 Jul - 14:48:51 10° WSW 14:58:34 53° S 15:08:07 10° ESE daylight
01 Jul - 16:53:03 10° W 17:02:30 46° SSW 17:11:41 10° SE daylight
01 Jul - 18:58:07 10° W 19:05:39 25° SW 19:13:02 10° S daylight
02 Jul - 10:24:21 10° SSE 10:29:17 15° SE 10:34:12 10° E daylight
02 Jul - 12:22:59 10° SSW 12:31:53 36° SSE 12:40:42 10° E daylight
02 Jul - 14:25:51 10° WSW 14:35:34 53° S 14:45:07 10° E daylight
02 Jul - 16:30:01 10° W 16:39:31 47° SSW 16:48:46 10° SE daylight
02 Jul - 18:34:59 10° W 18:42:45 26° SW 18:50:19 10° S daylight
